Time,TemperatureF,DewpointF,PressureIn,WindDirection,WindDirectionDegrees,WindSpeedMPH,WindSpeedGustMPH,Humidity,HourlyPrecipIn,Conditions,Clouds,dailyrainin,SoftwareType,DateUTC
2013-03-04 00:00:00,27.9,23.4,28.52,ESE,112,14.8,17.2,83,0.00,,,0.00,VWS V14.01,2013-03-04 06:00:00,
2013-03-04 00:05:00,27.0,23.6,28.50,ESE,112,13.0,22.2,87,0.00,,,0.00,VWS V14.01,2013-03-04 06:05:00,
2013-03-04 00:10:00,27.7,23.8,28.52,ESE,112,12.3,17.2,85,0.00,,,0.00,VWS V14.01,2013-03-04 06:10:00,
2013-03-04 00:15:00,27.5,23.6,28.52,ESE,112,13.2,17.2,85,0.00,,,0.00,VWS V14.01,2013-03-04 06:15:00,
2013-03-04 00:20:00,27.3,23.7,28.52,ESE,112,10.3,15.2,86,0.00,,,0.00,VWS V14.01,2013-03-04 06:20:00,
2013-03-04 00:25:00,27.1,23.8,28.52,ESE,112,14.3,17.7,87,0.00,,,0.00,VWS V14.01,2013-03-04 06:25:00,
2013-03-04 00:30:00,27.0,23.6,28.50,ESE,112,13.0,18.1,87,0.00,,,0.00,VWS V14.01,2013-03-04 06:30:00,
2013-03-04 00:35:00,27.0,23.6,28.50,ESE,112,12.5,19.7,87,0.00,,,0.00,VWS V14.01,2013-03-04 06:35:00,
2013-03-04 00:40:00,27.0,23.6,28.50,ESE,112,12.5,19.5,87,0.00,,,0.00,VWS V14.01,2013-03-04 06:40:00,
2013-03-04 00:45:00,27.0,23.9,28.50,ESE,112,16.1,17.7,88,0.00,,,0.00,VWS V14.01,2013-03-04 06:45:00,
2013-03-04 00:50:00,27.0,23.9,28.50,ESE,112,19.7,19.7,88,0.00,,,0.00,VWS V14.01,2013-03-04 06:50:00,
2013-03-04 00:55:00,27.0,23.9,28.50,ESE,112,16.3,19.7,88,0.00,,,0.00,VWS V14.01,2013-03-04 06:55:00,
2013-03-04 01:00:00,27.0,23.6,28.50,ESE,112,17.9,22.6,87,0.00,,,0.00,VWS V14.01,2013-03-04 07:00:00,
2013-03-04 01:05:00,27.0,23.6,28.50,ESE,112,13.0,22.2,87,0.00,,,0.00,VWS V14.01,2013-03-04 07:05:00,
2013-03-04 01:10:00,27.0,23.6,28.50,ESE,112,16.1,23.9,87,0.00,,,0.00,VWS V14.01,2013-03-04 07:10:00,
2013-03-04 01:15:00,27.0,23.6,28.47,ESE,112,15.2,23.3,87,0.00,,,0.00,VWS V14.01,2013-03-04 07:15:00,
2013-03-04 01:20:00,27.0,23.6,28.47,ESE,112,21.9,25.5,87,0.00,,,0.00,VWS V14.01,2013-03-04 07:20:00,
2013-03-04 01:25:00,27.0,23.6,28.47,ESE,112,16.1,23.3,87,0.00,,,0.00,VWS V14.01,2013-03-04 07:25:00,
2013-03-04 01:30:00,27.0,23.6,28.47,ESE,112,17.0,19.9,87,0.00,,,0.00,VWS V14.01,2013-03-04 07:30:00,
2013-03-04 01:35:00,27.0,23.6,28.47,ESE,112,10.7,22.4,87,0.00,,,0.00,VWS V14.01,2013-03-04 07:35:00,
2013-03-04 01:40:00,27.0,23.9,28.47,ESE,112,12.5,17.2,88,0.00,,,0.00,VWS V14.01,2013-03-04 07:40:00,
2013-03-04 01:45:00,27.0,23.9,28.47,ESE,112,19.2,20.1,88,0.00,,,0.00,VWS V14.01,2013-03-04 07:45:00,
2013-03-04 01:50:00,26.4,23.6,28.47,ESE,112,10.1,19.7,89,0.00,,,0.00,VWS V14.01,2013-03-04 07:50:00,
2013-03-04 01:55:00,27.0,23.9,28.47,ESE,112,15.7,19.9,88,0.00,,,0.00,VWS V14.01,2013-03-04 07:55:00,
2013-03-04 02:00:00,27.0,23.6,28.50,ESE,112,15.4,19.7,87,0.00,,,0.00,VWS V14.01,2013-03-04 08:00:00,
2013-03-04 02:05:00,27.0,23.6,28.50,ESE,112,15.2,18.8,87,0.00,,,0.00,VWS V14.01,2013-03-04 08:05:00,
2013-03-04 02:10:00,26.8,23.7,28.50,ESE,112,16.3,19.7,88,0.00,,,0.00,VWS V14.01,2013-03-04 08:10:00,
2013-03-04 02:15:00,26.8,23.7,28.47,ESE,112,11.0,21.0,88,0.00,,,0.00,VWS V14.01,2013-03-04 08:15:00,
2013-03-04 02:20:00,26.4,23.9,28.44,ESE,112,20.1,23.3,90,0.00,,,0.00,VWS V14.01,2013-03-04 08:20:00,
2013-03-04 02:25:00,26.8,23.7,28.47,ESE,112,16.3,22.8,88,0.00,,,0.00,VWS V14.01,2013-03-04 08:25:00,
2013-03-04 02:30:00,26.8,23.7,28.47,ESE,112,17.7,22.6,88,0.00,,,0.00,VWS V14.01,2013-03-04 08:30:00,
2013-03-04 02:35:00,26.6,23.8,28.47,ESE,112,15.4,19.9,89,0.00,,,0.00,VWS V14.01,2013-03-04 08:35:00,
2013-03-04 02:40:00,26.2,23.7,28.47,ESE,112,17.2,22.2,90,0.00,,,0.00,VWS V14.01,2013-03-04 08:40:00,
2013-03-04 02:45:00,26.6,23.8,28.47,ESE,112,10.7,21.0,89,0.00,,,0.00,VWS V14.01,2013-03-04 08:45:00,
2013-03-04 02:50:00,26.2,23.7,28.44,ESE,112,17.9,19.5,90,0.00,,,0.00,VWS V14.01,2013-03-04 08:50:00,
2013-03-04 02:55:00,26.4,23.6,28.47,ESE,112,13.2,17.7,89,0.00,,,0.00,VWS V14.01,2013-03-04 08:55:00,
2013-03-04 03:00:00,26.2,23.7,28.44,ESE,112,17.9,19.2,90,0.00,,,0.00,VWS V14.01,2013-03-04 09:00:00,
2013-03-04 03:05:00,26.4,23.6,28.47,ESE,112,17.2,20.1,89,0.00,,,0.00,VWS V14.01,2013-03-04 09:05:00,
2013-03-04 03:10:00,26.2,24.0,28.44,ESE,112,17.0,17.5,91,0.00,,,0.00,VWS V14.01,2013-03-04 09:10:00,
2013-03-04 03:15:00,26.4,23.9,28.44,ESE,112,13.2,21.9,90,0.00,,,0.00,VWS V14.01,2013-03-04 09:15:00,
2013-03-04 03:20:00,26.4,23.9,28.44,ESE,112,20.1,23.3,90,0.00,,,0.00,VWS V14.01,2013-03-04 09:20:00,
2013-03-04 03:25:00,26.4,23.9,28.44,ESE,112,17.7,20.1,90,0.00,,,0.00,VWS V14.01,2013-03-04 09:25:00,
2013-03-04 03:30:00,26.4,23.9,28.47,ESE,112,15.7,17.7,90,0.00,,,0.00,VWS V14.01,2013-03-04 09:30:00,
2013-03-04 03:35:00,26.4,23.9,28.47,ESE,112,15.7,19.9,90,0.00,,,0.00,VWS V14.01,2013-03-04 09:35:00,
2013-03-04 03:40:00,26.2,23.7,28.47,ESE,112,17.2,22.2,90,0.00,,,0.00,VWS V14.01,2013-03-04 09:40:00,
2013-03-04 03:45:00,26.2,23.7,28.44,ESE,112,12.5,17.5,90,0.00,,,0.00,VWS V14.01,2013-03-04 09:45:00,
2013-03-04 03:50:00,26.2,23.7,28.44,ESE,112,17.9,19.5,90,0.00,,,0.00,VWS V14.01,2013-03-04 09:50:00,
2013-03-04 03:55:00,26.2,23.7,28.44,ESE,112,17.5,18.6,90,0.00,,,0.00,VWS V14.01,2013-03-04 09:55:00,
2013-03-04 04:00:00,26.2,23.7,28.44,ESE,112,17.9,19.2,90,0.00,,,0.00,VWS V14.01,2013-03-04 10:00:00,
2013-03-04 04:05:00,26.2,23.7,28.44,ESE,112,13.0,20.1,90,0.00,,,0.00,VWS V14.01,2013-03-04 10:05:00,
2013-03-04 04:10:00,26.8,24.2,28.44,ESE,112,13.4,21.0,90,0.00,,,0.00,VWS V14.01,2013-03-04 10:10:00,
2013-03-04 04:15:00,26.2,24.0,28.47,ESE,112,14.8,17.0,91,0.00,,,0.00,VWS V14.01,2013-03-04 10:15:00,
2013-03-04 04:20:00,26.2,24.0,28.47,ESE,112,13.0,17.9,91,0.00,,,0.00,VWS V14.01,2013-03-04 10:20:00,
2013-03-04 04:25:00,26.2,24.0,28.47,ESE,112,12.5,18.6,91,0.00,,,0.00,VWS V14.01,2013-03-04 10:25:00,
2013-03-04 04:30:00,26.2,24.0,28.44,ESE,112,9.2,19.5,91,0.00,,,0.00,VWS V14.01,2013-03-04 10:30:00,
2013-03-04 04:35:00,26.4,24.1,28.44,ESE,112,13.2,17.9,91,0.00,,,0.00,VWS V14.01,2013-03-04 10:35:00,
2013-03-04 04:40:00,26.4,24.1,28.44,ESE,112,10.7,19.9,91,0.00,,,0.00,VWS V14.01,2013-03-04 10:40:00,
2013-03-04 04:45:00,27.0,24.4,28.44,ESE,112,17.0,19.5,90,0.00,,,0.00,VWS V14.01,2013-03-04 10:45:00,
2013-03-04 04:50:00,26.8,24.5,28.44,ESE,112,13.6,17.2,91,0.00,,,0.00,VWS V14.01,2013-03-04 10:50:00,
2013-03-04 04:55:00,26.8,24.5,28.44,ESE,112,15.2,19.5,91,0.00,,,0.00,VWS V14.01,2013-03-04 10:55:00,
2013-03-04 05:00:00,26.8,24.5,28.44,ESE,112,18.1,18.1,91,0.00,,,0.00,VWS V14.01,2013-03-04 11:00:00,
2013-03-04 05:05:00,26.8,24.2,28.44,ESE,112,14.3,18.1,90,0.00,,,0.00,VWS V14.01,2013-03-04 11:05:00,
2013-03-04 05:10:00,26.8,24.2,28.44,ESE,112,13.4,21.0,90,0.00,,,0.00,VWS V14.01,2013-03-04 11:10:00,
2013-03-04 05:15:00,27.0,24.4,28.44,ESE,112,10.1,17.7,90,0.00,,,0.00,VWS V14.01,2013-03-04 11:15:00,
2013-03-04 05:20:00,27.0,24.4,28.44,ESE,112,16.3,16.8,90,0.00,,,0.00,VWS V14.01,2013-03-04 11:20:00,
2013-03-04 05:25:00,27.0,24.4,28.44,ESE,112,13.0,19.5,90,0.00,,,0.00,VWS V14.01,2013-03-04 11:25:00,
2013-03-04 05:30:00,27.0,24.4,28.44,ESE,112,15.2,19.0,90,0.00,,,0.00,VWS V14.01,2013-03-04 11:30:00,
2013-03-04 05:35:00,27.0,24.4,28.44,ESE,112,16.1,20.4,90,0.00,,,0.00,VWS V14.01,2013-03-04 11:35:00,
2013-03-04 05:40:00,27.0,24.4,28.44,ESE,112,15.9,19.0,90,0.00,,,0.00,VWS V14.01,2013-03-04 11:40:00,
2013-03-04 05:45:00,27.0,24.4,28.44,ESE,112,17.0,19.5,90,0.00,,,0.00,VWS V14.01,2013-03-04 11:45:00,
2013-03-04 05:50:00,27.0,24.4,28.44,ESE,112,18.6,19.0,90,0.00,,,0.00,VWS V14.01,2013-03-04 11:50:00,
2013-03-04 05:55:00,27.0,24.4,28.44,ESE,112,17.7,19.7,90,0.00,,,0.00,VWS V14.01,2013-03-04 11:55:00,
2013-03-04 06:00:00,27.0,24.4,28.44,ESE,112,12.8,18.6,90,0.00,,,0.00,VWS V14.01,2013-03-04 12:00:00,
2013-03-04 06:05:00,27.0,24.4,28.44,ESE,112,13.0,19.7,90,0.00,,,0.00,VWS V14.01,2013-03-04 12:05:00,
2013-03-04 06:10:00,26.8,24.2,28.44,ESE,112,14.3,19.2,90,0.00,,,0.00,VWS V14.01,2013-03-04 12:10:00,
2013-03-04 06:15:00,26.8,24.2,28.44,ESE,112,13.2,17.7,90,0.00,,,0.00,VWS V14.01,2013-03-04 12:15:00,
2013-03-04 06:20:00,27.0,24.4,28.44,ESE,112,15.4,19.9,90,0.00,,,0.00,VWS V14.01,2013-03-04 12:20:00,
2013-03-04 06:25:00,27.0,24.4,28.44,ESE,112,12.1,15.4,90,0.00,,,0.00,VWS V14.01,2013-03-04 12:25:00,
2013-03-04 06:30:00,27.0,24.4,28.47,ESE,112,14.8,17.2,90,0.00,,,0.00,VWS V14.01,2013-03-04 12:30:00,
2013-03-04 06:35:00,27.0,24.4,28.47,ESE,112,15.4,17.5,90,0.00,,,0.00,VWS V14.01,2013-03-04 12:35:00,
2013-03-04 06:40:00,27.0,24.4,28.47,ESE,112,12.5,16.3,90,0.00,,,0.00,VWS V14.01,2013-03-04 12:40:00,
2013-03-04 06:45:00,27.0,24.4,28.44,ESE,112,14.5,17.5,90,0.00,,,0.00,VWS V14.01,2013-03-04 12:45:00,
2013-03-04 06:50:00,27.0,24.7,28.44,ESE,112,13.0,19.9,91,0.00,,,0.00,VWS V14.01,2013-03-04 12:50:00,
2013-03-04 06:55:00,27.0,24.7,28.44,ESE,112,15.4,16.1,91,0.00,,,0.00,VWS V14.01,2013-03-04 12:55:00,
2013-03-04 07:00:00,27.0,24.7,28.44,ESE,112,15.2,17.7,91,0.00,,,0.00,VWS V14.01,2013-03-04 13:00:00,
2013-03-04 07:05:00,27.1,24.9,28.44,ESE,112,12.3,15.9,91,0.00,,,0.00,VWS V14.01,2013-03-04 13:05:00,
2013-03-04 07:10:00,27.1,24.9,28.44,ESE,112,8.7,15.7,91,0.00,,,0.00,VWS V14.01,2013-03-04 13:10:00,
2013-03-04 07:15:00,27.1,24.9,28.47,ESE,112,14.5,17.2,91,0.00,,,0.00,VWS V14.01,2013-03-04 13:15:00,
2013-03-04 07:20:00,27.3,25.0,28.47,ESE,112,10.1,17.2,91,0.00,,,0.00,VWS V14.01,2013-03-04 13:20:00,
2013-03-04 07:25:00,27.3,25.0,28.47,ESE,112,15.4,15.4,91,0.00,,,0.00,VWS V14.01,2013-03-04 13:25:00,
2013-03-04 07:30:00,27.3,25.0,28.47,ESE,112,13.2,17.7,91,0.00,,,0.00,VWS V14.01,2013-03-04 13:30:00,
2013-03-04 07:35:00,27.5,25.2,28.47,ESE,112,11.0,15.9,91,0.00,,,0.00,VWS V14.01,2013-03-04 13:35:00,
2013-03-04 07:40:00,27.5,25.2,28.47,ESE,112,13.0,13.6,91,0.00,,,0.00,VWS V14.01,2013-03-04 13:40:00,
2013-03-04 07:45:00,27.7,25.4,28.50,ESE,112,10.5,15.9,91,0.00,,,0.00,VWS V14.01,2013-03-04 13:45:00,
2013-03-04 07:50:00,27.9,25.6,28.50,ESE,112,10.5,15.4,91,0.00,,,0.00,VWS V14.01,2013-03-04 13:50:00,
2013-03-04 07:55:00,28.0,25.8,28.50,ESE,112,12.3,15.9,91,0.00,,,0.00,VWS V14.01,2013-03-04 13:55:00,
2013-03-04 08:00:00,28.0,25.8,28.47,ESE,112,9.8,17.0,91,0.00,,,0.00,VWS V14.01,2013-03-04 14:00:00,
2013-03-04 08:05:00,28.2,25.7,28.47,ESE,112,15.2,17.5,90,0.00,,,0.00,VWS V14.01,2013-03-04 14:05:00,
2013-03-04 08:10:00,28.4,25.9,28.47,ESE,112,13.0,18.6,90,0.00,,,0.00,VWS V14.01,2013-03-04 14:10:00,
2013-03-04 08:15:00,28.6,26.0,28.47,ESE,112,12.8,16.6,90,0.00,,,0.00,VWS V14.01,2013-03-04 14:15:00,
2013-03-04 08:20:00,28.8,25.9,28.47,ESE,112,12.8,15.4,89,0.00,,,0.00,VWS V14.01,2013-03-04 14:20:00,
2013-03-04 08:25:00,28.8,25.9,28.47,ESE,112,12.5,15.7,89,0.00,,,0.00,VWS V14.01,2013-03-04 14:25:00,
2013-03-04 08:30:00,28.9,26.1,28.47,ESE,112,15.7,18.1,89,0.00,,,0.00,VWS V14.01,2013-03-04 14:30:00,
2013-03-04 08:35:00,29.1,26.0,28.47,ESE,112,13.0,16.3,88,0.00,,,0.00,VWS V14.01,2013-03-04 14:35:00,
2013-03-04 08:40:00,29.1,26.0,28.47,ESE,112,15.2,17.2,88,0.00,,,0.00,VWS V14.01,2013-03-04 14:40:00,
2013-03-04 08:45:00,29.5,26.4,28.47,ESE,112,12.3,17.2,88,0.00,,,0.00,VWS V14.01,2013-03-04 14:45:00,
2013-03-04 08:50:00,29.5,26.4,28.47,ESE,112,13.2,17.2,88,0.00,,,0.00,VWS V14.01,2013-03-04 14:50:00,
2013-03-04 08:55:00,29.7,26.5,28.47,ESE,112,15.2,17.2,88,0.00,,,0.00,VWS V14.01,2013-03-04 14:55:00,
2013-03-04 09:00:00,29.7,26.5,28.47,ESE,112,14.5,17.9,88,0.00,,,0.00,VWS V14.01,2013-03-04 15:00:00,
2013-03-04 09:05:00,29.8,26.7,28.47,ESE,112,13.6,16.3,88,0.00,,,0.00,VWS V14.01,2013-03-04 15:05:00,
2013-03-04 09:10:00,31.1,26.8,28.50,ESE,112,14.8,16.3,84,0.00,,,0.00,VWS V14.01,2013-03-04 15:10:00,
2013-03-04 09:15:00,30.2,27.1,28.47,ESE,112,12.8,17.9,88,0.00,,,0.00,VWS V14.01,2013-03-04 15:15:00,
2013-03-04 09:20:00,30.2,27.1,28.47,ESE,112,17.2,17.2,88,0.00,,,0.00,VWS V14.01,2013-03-04 15:20:00,
2013-03-04 09:25:00,31.5,27.2,28.50,ESE,112,15.4,15.4,84,0.00,,,0.00,VWS V14.01,2013-03-04 15:25:00,
2013-03-04 09:30:00,30.4,26.7,28.47,ESE,112,14.8,17.2,86,0.00,,,0.00,VWS V14.01,2013-03-04 15:30:00,
2013-03-04 09:35:00,30.4,26.7,28.47,ESE,112,12.8,15.7,86,0.00,,,0.00,VWS V14.01,2013-03-04 15:35:00,
2013-03-04 09:40:00,30.6,26.9,28.47,ESE,112,10.1,15.2,86,0.00,,,0.00,VWS V14.01,2013-03-04 15:40:00,
2013-03-04 09:45:00,30.7,27.1,28.47,ESE,112,10.3,15.2,86,0.00,,,0.00,VWS V14.01,2013-03-04 15:45:00,
2013-03-04 09:50:00,32.2,27.6,28.50,ESE,112,10.5,13.6,83,0.00,,,0.00,VWS V14.01,2013-03-04 15:50:00,
2013-03-04 09:55:00,30.9,27.0,28.47,ESE,112,9.8,17.2,85,0.00,,,0.00,VWS V14.01,2013-03-04 15:55:00,
2013-03-04 10:00:00,30.9,26.7,28.50,ESE,112,10.1,15.4,84,0.00,,,0.00,VWS V14.01,2013-03-04 16:00:00,
2013-03-04 10:05:00,30.9,26.7,28.50,ESE,112,10.5,15.9,84,0.00,,,0.00,VWS V14.01,2013-03-04 16:05:00,
2013-03-04 10:10:00,32.4,27.2,28.50,ESE,112,13.2,16.3,81,0.00,,,0.00,VWS V14.01,2013-03-04 16:10:00,
2013-03-04 10:15:00,31.3,27.3,28.50,ESE,112,12.3,15.4,85,0.00,,,0.00,VWS V14.01,2013-03-04 16:15:00,
2013-03-04 10:20:00,31.5,27.5,28.50,ESE,112,11.0,14.8,85,0.00,,,0.00,VWS V14.01,2013-03-04 16:20:00,
2013-03-04 10:25:00,31.5,27.2,28.50,ESE,112,15.4,15.4,84,0.00,,,0.00,VWS V14.01,2013-03-04 16:25:00,
2013-03-04 10:30:00,31.6,27.1,28.50,ESE,112,12.5,15.4,83,0.00,,,0.00,VWS V14.01,2013-03-04 16:30:00,
2013-03-04 10:35:00,31.8,27.5,28.50,ESE,112,12.3,13.4,84,0.00,,,0.00,VWS V14.01,2013-03-04 16:35:00,
2013-03-04 10:40:00,31.8,27.5,28.50,ESE,112,13.2,14.8,84,0.00,,,0.00,VWS V14.01,2013-03-04 16:40:00,
2013-03-04 10:45:00,32.0,27.4,28.50,ESE,112,13.0,13.9,83,0.00,,,0.00,VWS V14.01,2013-03-04 16:45:00,
2013-03-04 10:50:00,32.2,27.6,28.50,ESE,112,10.5,13.6,83,0.00,,,0.00,VWS V14.01,2013-03-04 16:50:00,
2013-03-04 10:55:00,33.3,27.8,28.50,ESE,112,12.3,15.4,80,0.00,,,0.00,VWS V14.01,2013-03-04 16:55:00,
2013-03-04 11:00:00,32.4,27.5,28.50,ESE,112,13.0,14.8,82,0.00,,,0.00,VWS V14.01,2013-03-04 17:00:00,
2013-03-04 11:05:00,32.5,26.8,28.50,ESE,112,12.8,15.4,79,0.00,,,0.00,VWS V14.01,2013-03-04 17:05:00,
2013-03-04 11:10:00,32.4,27.2,28.50,ESE,112,13.2,16.3,81,0.00,,,0.00,VWS V14.01,2013-03-04 17:10:00,
2013-03-04 11:15:00,32.4,27.2,28.50,ESE,112,11.0,15.4,81,0.00,,,0.00,VWS V14.01,2013-03-04 17:15:00,
2013-03-04 11:20:00,32.2,26.7,28.50,ESE,112,12.3,15.4,80,0.00,,,0.00,VWS V14.01,2013-03-04 17:20:00,
2013-03-04 11:25:00,33.6,28.1,28.50,ESE,112,10.3,12.5,80,0.00,,,0.00,VWS V14.01,2013-03-04 17:25:00,
2013-03-04 11:30:00,32.7,27.5,28.50,ESE,112,11.2,13.2,81,0.00,,,0.00,VWS V14.01,2013-03-04 17:30:00,
2013-03-04 11:35:00,32.4,26.9,28.50,ESE,112,10.1,15.2,80,0.00,,,0.00,VWS V14.01,2013-03-04 17:35:00,
2013-03-04 11:40:00,32.4,27.5,28.50,ESE,112,14.8,14.8,82,0.00,,,0.00,VWS V14.01,2013-03-04 17:40:00,
2013-03-04 11:45:00,32.4,27.5,28.50,ESE,112,13.2,16.6,82,0.00,,,0.00,VWS V14.01,2013-03-04 17:45:00,
2013-03-04 11:50:00,32.7,27.5,28.50,ESE,112,9.2,16.6,81,0.00,,,0.00,VWS V14.01,2013-03-04 17:50:00,
2013-03-04 11:55:00,33.1,27.6,28.50,ESE,112,7.8,10.1,80,0.00,,,0.00,VWS V14.01,2013-03-04 17:55:00,
2013-03-04 12:00:00,32.7,26.9,28.50,ESE,112,13.0,15.4,79,0.00,,,0.00,VWS V14.01,2013-03-04 18:00:00,
2013-03-04 12:05:00,33.3,27.8,28.50,ESE,112,7.8,10.3,80,0.00,,,0.00,VWS V14.01,2013-03-04 18:05:00,
2013-03-04 12:10:00,32.5,27.1,28.50,ESE,112,9.8,15.4,80,0.00,,,0.00,VWS V14.01,2013-03-04 18:10:00,
2013-03-04 12:15:00,33.1,28.2,28.50,ESE,112,8.1,11.2,82,0.00,,,0.00,VWS V14.01,2013-03-04 18:15:00,
2013-03-04 12:20:00,33.6,28.4,28.50,ESE,112,6.5,11.0,81,0.00,,,0.00,VWS V14.01,2013-03-04 18:20:00,
2013-03-04 12:25:00,33.6,28.1,28.50,ESE,112,10.3,12.5,80,0.00,,,0.00,VWS V14.01,2013-03-04 18:25:00,
2013-03-04 12:30:00,33.6,27.8,28.50,ESE,112,13.0,13.0,79,0.00,,,0.00,VWS V14.01,2013-03-04 18:30:00,
2013-03-04 12:35:00,33.4,27.6,28.50,ESE,112,8.5,13.0,79,0.00,,,0.00,VWS V14.01,2013-03-04 18:35:00,
2013-03-04 12:40:00,33.4,27.6,28.50,ESE,112,12.5,12.5,79,0.00,,,0.00,VWS V14.01,2013-03-04 18:40:00,
2013-03-04 12:45:00,33.3,27.2,28.50,ESE,112,6.0,8.5,78,0.00,,,0.00,VWS V14.01,2013-03-04 18:45:00,
2013-03-04 12:50:00,33.3,27.5,28.50,ESE,112,7.6,10.7,79,0.00,,,0.00,VWS V14.01,2013-03-04 18:50:00,
2013-03-04 12:55:00,33.1,27.6,28.50,ESE,112,7.8,10.1,80,0.00,,,0.00,VWS V14.01,2013-03-04 18:55:00,
2013-03-04 13:00:00,33.1,27.6,28.50,ESE,112,8.5,11.0,80,0.00,,,0.00,VWS V14.01,2013-03-04 19:00:00,
2013-03-04 13:05:00,33.3,27.8,28.50,ESE,112,7.8,10.3,80,0.00,,,0.00,VWS V14.01,2013-03-04 19:05:00,
2013-03-04 13:10:00,33.3,27.5,28.50,ESE,112,6.0,9.8,79,0.00,,,0.00,VWS V14.01,2013-03-04 19:10:00,
2013-03-04 13:15:00,33.4,27.6,28.50,ESE,112,8.5,8.5,79,0.00,,,0.00,VWS V14.01,2013-03-04 19:15:00,
2013-03-04 13:20:00,33.4,27.6,28.50,ESE,112,4.3,8.7,79,0.00,,,0.00,VWS V14.01,2013-03-04 19:20:00,
2013-03-04 13:25:00,33.3,27.5,28.50,ESE,112,7.6,8.7,79,0.00,,,0.00,VWS V14.01,2013-03-04 19:25:00,
2013-03-04 13:30:00,33.6,28.1,28.50,ESE,112,5.8,8.1,80,0.00,,,0.00,VWS V14.01,2013-03-04 19:30:00,
2013-03-04 13:35:00,33.6,28.1,28.50,ESE,112,6.0,9.8,80,0.00,,,0.00,VWS V14.01,2013-03-04 19:35:00,
2013-03-04 13:40:00,33.4,27.6,28.50,ESE,112,7.4,10.3,79,0.00,,,0.00,VWS V14.01,2013-03-04 19:40:00,
2013-03-04 13:45:00,33.3,27.1,28.50,ESE,112,6.0,8.5,78,0.00,,,0.00,VWS V14.01,2013-03-04 19:45:00,
2013-03-04 13:50:00,33.3,27.1,28.50,ESE,112,5.8,6.5,78,0.00,,,0.00,VWS V14.01,2013-03-04 19:50:00,
2013-03-04 13:55:00,33.3,27.5,28.50,ESE,112,4.0,7.6,79,0.00,,,0.00,VWS V14.01,2013-03-04 19:55:00,
2013-03-04 14:00:00,33.1,27.3,28.50,ESE,112,6.0,8.7,79,0.00,,,0.00,VWS V14.01,2013-03-04 20:00:00,
2013-03-04 14:05:00,32.2,27.0,28.50,ESE,112,7.6,8.1,81,0.00,,,0.00,VWS V14.01,2013-03-04 20:05:00,
2013-03-04 14:10:00,32.7,26.9,28.50,ESE,112,5.4,8.1,79,0.00,,,0.00,VWS V14.01,2013-03-04 20:10:00,
2013-03-04 14:15:00,32.7,27.2,28.50,ESE,112,5.8,8.5,80,0.00,,,0.00,VWS V14.01,2013-03-04 20:15:00,
2013-03-04 14:20:00,32.9,27.4,28.50,ESE,112,6.0,7.4,80,0.00,,,0.00,VWS V14.01,2013-03-04 20:20:00,
2013-03-04 14:25:00,32.7,27.2,28.50,ESE,112,7.6,8.7,80,0.00,,,0.00,VWS V14.01,2013-03-04 20:25:00,
2013-03-04 14:30:00,32.7,27.5,28.50,ESE,112,6.0,8.7,81,0.00,,,0.00,VWS V14.01,2013-03-04 20:30:00,
2013-03-04 14:35:00,33.1,27.9,28.50,ESE,112,6.5,8.5,81,0.00,,,0.00,VWS V14.01,2013-03-04 20:35:00,
2013-03-04 14:40:00,33.1,27.6,28.50,ESE,112,7.4,8.1,80,0.00,,,0.00,VWS V14.01,2013-03-04 20:40:00,
2013-03-04 14:45:00,32.9,27.1,28.50,ESE,112,10.1,10.1,79,0.00,,,0.00,VWS V14.01,2013-03-04 20:45:00,
2013-03-04 14:50:00,32.7,27.2,28.50,ESE,112,7.8,10.1,80,0.00,,,0.00,VWS V14.01,2013-03-04 20:50:00,
2013-03-04 14:55:00,32.5,26.8,28.50,ESE,112,7.6,8.7,79,0.00,,,0.00,VWS V14.01,2013-03-04 20:55:00,
2013-03-04 15:00:00,32.2,26.4,28.50,ESE,112,6.5,8.5,79,0.00,,,0.00,VWS V14.01,2013-03-04 21:00:00,
2013-03-04 15:05:00,32.2,27.0,28.50,ESE,112,7.6,8.1,81,0.00,,,0.00,VWS V14.01,2013-03-04 21:05:00,
2013-03-04 15:10:00,32.2,27.3,28.50,ESE,112,7.8,7.8,82,0.00,,,0.00,VWS V14.01,2013-03-04 21:10:00,
2013-03-04 15:15:00,32.2,27.6,28.52,ESE,112,8.1,9.8,83,0.00,,,0.00,VWS V14.01,2013-03-04 21:15:00,
2013-03-04 15:20:00,32.4,27.8,28.52,ESE,112,6.5,8.7,83,0.00,,,0.00,VWS V14.01,2013-03-04 21:20:00,
2013-03-04 15:25:00,32.5,28.0,28.52,ESE,112,5.6,8.7,83,0.00,,,0.00,VWS V14.01,2013-03-04 21:25:00,
2013-03-04 15:30:00,32.5,28.2,28.50,ESE,112,7.4,9.8,84,0.00,,,0.00,VWS V14.01,2013-03-04 21:30:00,
2013-03-04 15:35:00,32.4,27.8,28.50,ESE,112,8.1,9.8,83,0.00,,,0.00,VWS V14.01,2013-03-04 21:35:00,
2013-03-04 15:40:00,32.2,27.6,28.50,ESE,112,7.6,8.7,83,0.00,,,0.00,VWS V14.01,2013-03-04 21:40:00,
2013-03-04 15:45:00,32.2,27.6,28.52,ESE,112,8.7,10.7,83,0.00,,,0.00,VWS V14.01,2013-03-04 21:45:00,
2013-03-04 15:50:00,32.2,27.6,28.52,ESE,112,8.7,9.4,83,0.00,,,0.00,VWS V14.01,2013-03-04 21:50:00,
2013-03-04 15:55:00,32.2,27.6,28.52,ESE,112,5.4,10.1,83,0.00,,,0.00,VWS V14.01,2013-03-04 21:55:00,
2013-03-04 16:00:00,32.2,27.9,28.52,ESE,112,7.4,8.5,84,0.00,,,0.00,VWS V14.01,2013-03-04 22:00:00,
2013-03-04 16:05:00,31.8,27.5,28.52,ESE,112,8.1,10.5,84,0.00,,,0.00,VWS V14.01,2013-03-04 22:05:00,
2013-03-04 16:10:00,31.6,27.4,28.52,ESE,112,7.2,10.1,84,0.00,,,0.00,VWS V14.01,2013-03-04 22:10:00,
2013-03-04 16:15:00,31.6,27.7,28.50,ESE,112,7.8,9.2,85,0.00,,,0.00,VWS V14.01,2013-03-04 22:15:00,
2013-03-04 16:20:00,31.5,27.5,28.50,ESE,112,8.1,10.7,85,0.00,,,0.00,VWS V14.01,2013-03-04 22:20:00,
2013-03-04 16:25:00,31.6,27.9,28.50,ESE,112,7.2,8.7,86,0.00,,,0.00,VWS V14.01,2013-03-04 22:25:00,
2013-03-04 16:30:00,31.8,28.1,28.50,ESE,112,8.7,10.3,86,0.00,,,0.00,VWS V14.01,2013-03-04 22:30:00,
2013-03-04 16:35:00,32.0,28.3,28.50,ESE,112,6.9,8.7,86,0.00,,,0.00,VWS V14.01,2013-03-04 22:35:00,
2013-03-04 16:40:00,31.8,28.1,28.50,ESE,112,6.9,9.4,86,0.00,,,0.00,VWS V14.01,2013-03-04 22:40:00,
2013-03-04 16:45:00,31.8,28.1,28.52,ESE,112,8.1,8.7,86,0.00,,,0.00,VWS V14.01,2013-03-04 22:45:00,
2013-03-04 16:50:00,31.8,27.8,28.52,ESE,112,10.1,10.7,85,0.00,,,0.00,VWS V14.01,2013-03-04 22:50:00,
2013-03-04 16:55:00,31.6,27.7,28.52,ESE,112,6.3,10.5,85,0.00,,,0.00,VWS V14.01,2013-03-04 22:55:00,
2013-03-04 17:00:00,31.6,27.9,28.52,ESE,112,8.5,9.4,86,0.00,,,0.00,VWS V14.01,2013-03-04 23:00:00,
2013-03-04 17:05:00,31.1,28.0,28.55,ESE,112,6.3,8.1,88,0.00,,,0.00,VWS V14.01,2013-03-04 23:05:00,
2013-03-04 17:10:00,31.6,27.9,28.52,ESE,112,8.5,9.8,86,0.00,,,0.00,VWS V14.01,2013-03-04 23:10:00,
2013-03-04 17:15:00,31.6,27.9,28.52,ESE,112,6.5,10.1,86,0.00,,,0.00,VWS V14.01,2013-03-04 23:15:00,
2013-03-04 17:20:00,31.6,27.9,28.52,ESE,112,6.5,8.5,86,0.00,,,0.00,VWS V14.01,2013-03-04 23:20:00,
2013-03-04 17:25:00,31.6,27.9,28.52,ESE,112,7.8,10.7,86,0.00,,,0.00,VWS V14.01,2013-03-04 23:25:00,
2013-03-04 17:30:00,31.5,27.8,28.52,ESE,112,7.4,9.2,86,0.00,,,0.00,VWS V14.01,2013-03-04 23:30:00,
2013-03-04 17:35:00,31.5,27.8,28.52,ESE,112,8.5,11.0,86,0.00,,,0.00,VWS V14.01,2013-03-04 23:35:00,
2013-03-04 17:40:00,31.5,27.8,28.52,ESE,112,4.9,10.7,86,0.00,,,0.00,VWS V14.01,2013-03-04 23:40:00,
2013-03-04 17:45:00,31.5,28.0,28.52,ESE,112,5.8,8.5,87,0.00,,,0.00,VWS V14.01,2013-03-04 23:45:00,
2013-03-04 17:50:00,31.3,27.9,28.52,ESE,112,5.4,7.6,87,0.00,,,0.00,VWS V14.01,2013-03-04 23:50:00,
2013-03-04 17:55:00,31.3,27.9,28.52,ESE,112,5.6,6.3,87,0.00,,,0.00,VWS V14.01,2013-03-04 23:55:00,
2013-03-04 18:00:00,31.1,28.0,28.55,ESE,112,7.2,8.7,88,0.00,,,0.00,VWS V14.01,2013-03-05 00:00:00,
2013-03-04 18:05:00,31.1,28.0,28.55,ESE,112,6.3,8.1,88,0.00,,,0.00,VWS V14.01,2013-03-05 00:05:00,
2013-03-04 18:10:00,31.1,28.0,28.55,ESE,112,4.0,8.1,88,0.00,,,0.00,VWS V14.01,2013-03-05 00:10:00,
2013-03-04 18:15:00,30.9,27.8,28.55,ESE,112,4.9,7.6,88,0.00,,,0.00,VWS V14.01,2013-03-05 00:15:00,
2013-03-04 18:20:00,30.9,27.8,28.55,ESE,112,4.9,7.4,88,0.00,,,0.00,VWS V14.01,2013-03-05 00:20:00,
2013-03-04 18:25:00,30.9,27.8,28.55,ESE,112,4.7,6.3,88,0.00,,,0.00,VWS V14.01,2013-03-05 00:25:00,
2013-03-04 18:30:00,30.7,27.6,28.58,ESE,112,3.6,4.9,88,0.00,,,0.00,VWS V14.01,2013-03-05 00:30:00,
2013-03-04 18:35:00,30.7,27.6,28.58,ESE,112,4.3,5.8,88,0.00,,,0.00,VWS V14.01,2013-03-05 00:35:00,
2013-03-04 18:40:00,30.7,27.6,28.58,ESE,112,4.7,5.6,88,0.00,,,0.00,VWS V14.01,2013-03-05 00:40:00,
2013-03-04 18:45:00,30.7,27.9,28.58,ESE,112,5.8,7.2,89,0.00,,,0.00,VWS V14.01,2013-03-05 00:45:00,
2013-03-04 18:50:00,30.7,27.9,28.58,ESE,112,5.4,7.4,89,0.00,,,0.00,VWS V14.01,2013-03-05 00:50:00,
2013-03-04 18:55:00,30.6,27.7,28.58,ESE,112,4.9,6.5,89,0.00,,,0.00,VWS V14.01,2013-03-05 00:55:00,
2013-03-04 19:00:00,30.6,27.7,28.58,ESE,112,3.6,6.3,89,0.00,,,0.00,VWS V14.01,2013-03-05 01:00:00,
2013-03-04 19:05:00,30.6,27.4,28.64,ESE,112,1.3,2.0,88,0.00,,,0.00,VWS V14.01,2013-03-05 01:05:00,
2013-03-04 19:10:00,30.6,27.4,28.58,ESE,112,2.7,4.3,88,0.00,,,0.00,VWS V14.01,2013-03-05 01:10:00,
2013-03-04 19:15:00,30.6,27.4,28.61,ESE,112,1.1,3.4,88,0.00,,,0.00,VWS V14.01,2013-03-05 01:15:00,
2013-03-04 19:20:00,30.6,27.4,28.61,ESE,112,1.3,1.6,88,0.00,,,0.00,VWS V14.01,2013-03-05 01:20:00,
2013-03-04 19:25:00,30.6,27.4,28.61,ESE,112,2.5,3.6,88,0.00,,,0.00,VWS V14.01,2013-03-05 01:25:00,
2013-03-04 19:30:00,30.6,27.4,28.61,ESE,112,2.5,3.4,88,0.00,,,0.00,VWS V14.01,2013-03-05 01:30:00,
2013-03-04 19:35:00,30.6,27.4,28.64,ESE,112,0.0,1.3,88,0.00,,,0.00,VWS V14.01,2013-03-05 01:35:00,
2013-03-04 19:40:00,30.6,27.4,28.64,ESE,112,0.9,2.0,88,0.00,,,0.00,VWS V14.01,2013-03-05 01:40:00,
2013-03-04 19:45:00,30.6,27.4,28.61,ESE,112,0.0,0.0,88,0.00,,,0.00,VWS V14.01,2013-03-05 01:45:00,
2013-03-04 19:50:00,30.6,27.4,28.61,ESE,112,2.0,2.0,88,0.00,,,0.00,VWS V14.01,2013-03-05 01:50:00,
2013-03-04 19:55:00,30.6,27.4,28.61,ESE,112,1.3,2.2,88,0.00,,,0.00,VWS V14.01,2013-03-05 01:55:00,
2013-03-04 20:00:00,30.6,27.4,28.64,ESE,112,0.0,1.3,88,0.00,,,0.00,VWS V14.01,2013-03-05 02:00:00,
2013-03-04 20:05:00,30.6,27.4,28.64,ESE,112,1.3,2.0,88,0.00,,,0.00,VWS V14.01,2013-03-05 02:05:00,
2013-03-04 20:10:00,30.6,27.4,28.64,ESE,112,0.0,2.9,88,0.00,,,0.00,VWS V14.01,2013-03-05 02:10:00,
2013-03-04 20:15:00,30.6,28.0,28.64,ESE,112,1.1,2.2,90,0.00,,,0.00,VWS V14.01,2013-03-05 02:15:00,
2013-03-04 20:20:00,30.6,27.4,28.61,ESE,112,1.3,2.0,88,0.00,,,0.00,VWS V14.01,2013-03-05 02:20:00,
2013-03-04 20:25:00,30.6,28.0,28.64,ESE,112,2.5,3.4,90,0.00,,,0.00,VWS V14.01,2013-03-05 02:25:00,
2013-03-04 20:30:00,30.6,27.4,28.64,ESE,112,0.0,1.3,88,0.00,,,0.00,VWS V14.01,2013-03-05 02:30:00,
2013-03-04 20:35:00,30.6,28.2,28.64,ESE,112,1.6,2.7,91,0.00,,,0.00,VWS V14.01,2013-03-05 02:35:00,
2013-03-04 20:40:00,30.6,27.4,28.64,ESE,112,0.9,2.0,88,0.00,,,0.00,VWS V14.01,2013-03-05 02:40:00,
2013-03-04 20:45:00,30.6,27.7,28.64,ESE,112,2.0,2.2,89,0.00,,,0.00,VWS V14.01,2013-03-05 02:45:00,
2013-03-04 20:50:00,30.6,27.7,28.64,ESE,112,1.6,2.2,89,0.00,,,0.00,VWS V14.01,2013-03-05 02:50:00,
2013-03-04 20:55:00,30.6,27.7,28.64,ESE,112,1.6,2.7,89,0.00,,,0.00,VWS V14.01,2013-03-05 02:55:00,
2013-03-04 21:00:00,30.6,27.7,28.64,ESE,112,1.1,2.5,89,0.00,,,0.00,VWS V14.01,2013-03-05 03:00:00,
2013-03-04 21:05:00,30.6,27.7,28.64,ESE,112,2.0,2.2,89,0.00,,,0.00,VWS V14.01,2013-03-05 03:05:00,
2013-03-04 21:10:00,30.4,28.3,28.61,ESE,112,2.5,2.9,92,0.00,,,0.00,VWS V14.01,2013-03-05 03:10:00,
2013-03-04 21:15:00,30.6,28.0,28.64,ESE,112,1.1,2.2,90,0.00,,,0.00,VWS V14.01,2013-03-05 03:15:00,
2013-03-04 21:20:00,30.6,28.0,28.64,ESE,112,2.0,2.5,90,0.00,,,0.00,VWS V14.01,2013-03-05 03:20:00,
2013-03-04 21:25:00,30.6,28.0,28.64,ESE,112,2.5,3.4,90,0.00,,,0.00,VWS V14.01,2013-03-05 03:25:00,
2013-03-04 21:30:00,30.2,28.7,28.61,ESE,112,2.0,2.9,94,0.00,,,0.00,VWS V14.01,2013-03-05 03:30:00,
2013-03-04 21:35:00,30.6,28.2,28.64,ESE,112,1.6,2.7,91,0.00,,,0.00,VWS V14.01,2013-03-05 03:35:00,
2013-03-04 21:40:00,30.2,28.7,28.61,ESE,112,2.5,3.1,94,0.00,,,0.00,VWS V14.01,2013-03-05 03:40:00,
2013-03-04 21:45:00,30.6,28.2,28.64,ESE,112,2.0,2.0,91,0.00,,,0.00,VWS V14.01,2013-03-05 03:45:00,
2013-03-04 21:50:00,30.6,28.2,28.64,ESE,112,0.0,2.2,91,0.00,,,0.00,VWS V14.01,2013-03-05 03:50:00,
2013-03-04 21:55:00,30.4,28.1,28.64,ESE,112,2.0,2.5,91,0.00,,,0.00,VWS V14.01,2013-03-05 03:55:00,
2013-03-04 22:00:00,30.4,28.1,28.61,ESE,112,2.2,2.7,91,0.00,,,0.00,VWS V14.01,2013-03-05 04:00:00,
2013-03-04 22:05:00,30.4,28.3,28.61,ESE,112,1.6,2.7,92,0.00,,,0.00,VWS V14.01,2013-03-05 04:05:00,
2013-03-04 22:10:00,30.0,28.5,28.61,ESE,112,1.3,2.0,94,0.00,,,0.00,VWS V14.01,2013-03-05 04:10:00,
2013-03-04 22:15:00,30.4,28.3,28.61,ESE,112,2.5,2.9,92,0.00,,,0.00,VWS V14.01,2013-03-05 04:15:00,
2013-03-04 22:20:00,30.4,28.6,28.61,ESE,112,2.5,2.9,93,0.00,,,0.00,VWS V14.01,2013-03-05 04:20:00,
2013-03-04 22:25:00,30.4,28.6,28.61,ESE,112,2.5,2.9,93,0.00,,,0.00,VWS V14.01,2013-03-05 04:25:00,
2013-03-04 22:30:00,30.2,28.7,28.61,ESE,112,2.0,2.9,94,0.00,,,0.00,VWS V14.01,2013-03-05 04:30:00,
2013-03-04 22:35:00,30.2,28.7,28.61,ESE,112,2.0,3.1,94,0.00,,,0.00,VWS V14.01,2013-03-05 04:35:00,
2013-03-04 22:40:00,30.2,28.7,28.61,ESE,112,2.5,3.1,94,0.00,,,0.00,VWS V14.01,2013-03-05 04:40:00,
2013-03-04 22:45:00,30.2,28.7,28.61,ESE,112,2.0,2.7,94,0.00,,,0.00,VWS V14.01,2013-03-05 04:45:00,
2013-03-04 22:50:00,30.0,28.5,28.61,ESE,112,0.0,2.0,94,0.00,,,0.00,VWS V14.01,2013-03-05 04:50:00,
2013-03-04 22:55:00,30.0,28.5,28.61,ESE,112,0.0,0.0,94,0.00,,,0.00,VWS V14.01,2013-03-05 04:55:00,
2013-03-04 23:00:00,30.0,28.5,28.61,ESE,112,0.9,2.0,94,0.00,,,0.00,VWS V14.01,2013-03-05 05:00:00,
2013-03-04 23:05:00,30.0,28.5,28.61,ESE,112,1.6,2.0,94,0.00,,,0.00,VWS V14.01,2013-03-05 05:05:00,
2013-03-04 23:10:00,30.0,28.5,28.61,ESE,112,1.3,2.0,94,0.00,,,0.00,VWS V14.01,2013-03-05 05:10:00,
2013-03-04 23:15:00,30.0,28.5,28.61,ESE,112,2.7,2.9,94,0.00,,,0.00,VWS V14.01,2013-03-05 05:15:00,
2013-03-04 23:20:00,30.2,28.7,28.61,ESE,112,4.0,4.0,94,0.00,,,0.00,VWS V14.01,2013-03-05 05:20:00,
2013-03-04 23:25:00,30.2,28.9,28.61,ESE,112,4.9,4.9,95,0.00,,,0.00,VWS V14.01,2013-03-05 05:25:00,
2013-03-04 23:30:00,30.2,29.2,28.61,ESE,112,3.8,4.9,96,0.00,,,0.00,VWS V14.01,2013-03-05 05:30:00,
2013-03-04 23:35:00,30.2,29.5,28.61,ESE,112,3.8,4.7,97,0.00,,,0.00,VWS V14.01,2013-03-05 05:35:00,
2013-03-04 23:40:00,30.2,29.5,28.61,ESE,112,3.1,5.4,97,0.00,,,0.00,VWS V14.01,2013-03-05 05:40:00,
2013-03-04 23:45:00,30.2,29.7,28.61,ESE,112,2.7,4.7,98,0.00,,,0.00,VWS V14.01,2013-03-05 05:45:00,
2013-03-04 23:50:00,30.2,29.7,28.61,ESE,112,4.0,4.5,98,0.00,,,0.00,VWS V14.01,2013-03-05 05:50:00,
2013-03-04 23:55:00,30.4,29.9,28.61,ESE,112,6.0,6.5,98,0.00,,,0.00,VWS V14.01,2013-03-05 05:55:00,